www.pogodaiklimat.ru

Погода и климат >> Архив погоды >> Саудовская Аравия >> Makkah


АРХИВ ПОГОДЫ в Makkah

Время (UTC), дата Ветер
(напр.,м/с)
 
Видим.   Явления Облачность Т
(С)
Тd
(С)
f
(%)
Тe
(С)
Тes
(С)
Комфортность P
(гПа)
Po
(гПа)
Тmin
(С)
Tmax
(С)
R
(мм)
R24
(мм)
S
(см)
06 23.04 штиль 0 10 км ясно +34.8 +21.0 45 +42 +55 опасность
перегрева
1006.9 980.7 +29.0
09 23.04 Ю 4 10 км ясно +40.0 +18.0 28 +43 +57 опасность
перегрева
1006.6 980.6
12 23.04 Ю 5 8000 м пыль ясно +41.2 +16.0 23 +43 +50 опасность
перегрева
1004.3 978.3
15 23.04 ЮЗ 2 10 км ясно +38.4 +14.0 24 +39 +40 очень
душно
1004.6 978.4
18 23.04 Ю 3 10 км ясно +34.6 +16.0 33 +37 +37 очень
душно
1005.5 979.4 +43.0
21 23.04 штиль 0 10 км ясно +33.0 +17.0 38 +36 +36 очень
душно
1005.0 979.0
00 24.04 штиль 0 10 км ясно +30.8 +18.0 46 +35 +35 очень
душно
1003.9 977.9
03 24.04 штиль 0 10 км ясно +31.6 +15.0 37 +34 +34 душно 1005.0 978.9
06 24.04 штиль 0 10 км ясно +33.8 +16.0 35 +36 +50 очень
душно
1006.7 980.5 +29.8
09 24.04 штиль 0 10 км ясно +38.8 +17.0 28 +41 +71 опасность
перегрева
1006.1 980.1
12 24.04 СЗ 2 10 км 1/0
[Ci fib]
+39.6 +20.0 32 +45 +58 опасность
перегрева
1004.3 978.2
15 24.04 СЗ 2 10 км 3/0
[Ci sp]
+37.2 +20.0 37 +43 +44 опасность
перегрева
1004.2 978.1
18 24.04 СЗ 1 10 км ясно +31.8 +22.0 56 +40 +40 очень
душно
1006.3 980.0 +41.8
21 24.04 штиль 0 10 км ясно +31.0 +22.0 59 +40 +40 очень
душно
1005.7 979.6
00 25.04 штиль 0 10 км ясно +29.8 +22.0 63 +38 +38 очень
душно
1004.3 978.2
03 25.04 штиль 0 10 км ясно +29.0 +21.0 62 +36 +36 очень
душно
1004.8 978.6
06 25.04 СЗ 1 10 км ясно +31.4 +23.0 61 +42 +53 опасность
перегрева
1006.3 979.9 +28.6
09 25.04 З 1 10 км ясно +39.0 +19.0 31 +43 +69 опасность
перегрева
1005.8 979.7
12 25.04 ЮЗ 3 10 км ясно +40.0 +21.0 34 +47 +59 опасность
перегрева
1004.2 978.1
15 25.04 штиль 0 10 км ясно +37.4 +20.0 36 +43 +44 опасность
перегрева
1003.7 977.5
18 25.04 штиль 0 10 км ясно +33.2 +21.0 49 +41 +41 опасность
перегрева
1005.4 979.1 +40.8
21 25.04 штиль 0 10 км 1/0
[Ac trans]
+30.8 +22.0 59 +39 +39 очень
душно
1005.7 979.6
00 26.04 штиль 0 10 км 1/0
[Ac trans]
+29.4 +22.0 64 +38 +38 очень
душно
1005.2 979.1
03 26.04 штиль 0 10 км 1/0
[Ac trans]
+28.6 +22.0 68 +37 +37 очень
душно
1006.0 979.7
06 26.04 штиль 0 10 км 3/3 1200 м
[Sc diur, vesp]
+32.0 +22.0 56 +41 +50 опасность
перегрева
1008.0 981.6 +28.0
09 26.04 ЮЗ 1 10 км 6/6 1200 м
[Sc diur, vesp]
+37.0 +18.0 33 +41 +51 опасность
перегрева
1007.8 981.5
12 26.04 Ю 5 10 км ясно +39.6 +19.0 30 +44 +51 опасность
перегрева
1005.6 979.5
15 26.04 ЮЗ 2 10 км ясно +34.8 +21.0 45 +42 +43 опасность
перегрева
1007.4 979.7
18 26.04 штиль 0 10 км ясно +32.2 +18.0 43 +37 +37 очень
душно
1007.7 981.3 +40.0
21 26.04 штиль 0 10 км 1/1 1200 м
[Cu hum]
+31.2 +16.0 40 +34 +34 душно 1008.6 982.3
00 27.04 штиль 0 10 км {гроза} 6/6 1200 м
[Sc]
+30.8 +17.0 44 +35 +35 очень
душно
1007.1 981.0
03 27.04 штиль 0 9000 м мгла 1/1 1200 м
[Sc]
+29.8 +17.0 46 +33 +33 душно 1006.9 980.5
06 27.04 штиль 0 9000 м мгла ясно +33.2 +19.0 43 +38 +52 опасность
солнечного
удара
1008.4 982.0 +29.4
09 27.04 ЮЗ 1 10 км ясно +38.6 +19.0 32 +43 +68 опасность
перегрева
1008.0 981.8
12 27.04 СЗ 2 10 км 5/5 1200 м
[Sc diur, vesp]
+40.4 +14.0 21 +41 +47 опасность
перегрева
1005.8 979.7
15 27.04 СЗ 1 10 км 6/6 1200 м
[Sc]
+35.0 +13.0 27 +35 +36 очень
жарко
1007.3 980.9
18 27.04 С 2 10 км 4/4 1200 м
[Sc diur, vesp]
+32.8 +14.0 32 +34 +34 очень
жарко
1008.3 982.0 +41.4
21 27.04 штиль 0 10 км ясно +30.6 +14.0 36 +32 +32 жарко 1008.4 982.2
00 28.04 штиль 0 10 км ясно +29.6 +16.0 44 +33 +33 душно 1007.2 981.1
03 28.04 штиль 0 10 км 3/0
[Ac trans]
+27.8 +17.0 52 +32 +32 душно 1008.2 981.7
06 28.04 штиль 0 10 км ясно +32.2 +15.0 35 +34 +48 душно 1009.7 983.3 +27.6
09 28.04 С 1 10 км 3/0
[Ci fib]
+37.6 +14.0 25 +38 +62 опасность
солнечного
удара
1008.7 982.4
12 28.04 С 1 10 км ясно +40.6 +18.0 27 +44 +60 опасность
перегрева
1006.1 980.0
15 28.04 СЗ 2 10 км ясно +37.0 +16.0 29 +39 +40 очень
душно
1006.1 979.8
18 28.04 штиль 0 10 км ясно +32.6 +16.0 37 +35 +35 душно 1008.4 982.0 +41.8
21 28.04 штиль 0 10 км ясно +31.2 +15.0 37 +33 +33 жарко 1008.3 982.1
00 29.04 штиль 0 10 км ясно +29.8 +16.0 43 +33 +33 душно 1007.8 981.7
03 29.04 штиль 0 8000 м гроза, ливневой дождь 9/8 900 м
[Cb cap Ac trans]
+26.8 +15.0 48 +29 +29 жарко 1010.6 984.2
06 29.04 ЮЗ 3 9000 м гроза, ливневой дождь 9/9 900 м
[Cb cap]
+22.5 +19.0 81 +28 +29 душно 1012.8 985.9 +21.0
09 29.04 З 2 10 км 6/4 1200 м
[Sc diur, vesp Ac trans]
+31.0 +17.0 43 +35 +45 очень
душно
1010.7 984.1
12 29.04 Ю 2 10 км 9/4 1200 м
[Sc diur, vesp Ac lent]
+35.9 +17.0 33 +39 +42 очень
душно
1008.5 982.1 4
15 29.04 Ю 4 10 км 6/3 1200 м
[Sc diur, vesp Ac lent]
+34.4 +17.0 36 +38 +38 очень
душно
1008.0 981.6
18 29.04 штиль 0 10 км 4/0
[As op]
+29.4 +22.0 64 +38 +38 очень
душно
1008.9 981.9 +37.0
21 29.04 штиль 0 10 км 5/0
[As op]
+29.0 +21.0 62 +36 +36 очень
душно
1009.2 982.6
00 30.04 штиль 0 10 км 4/0
[Ci fib]
+27.0 +22.0 74 +35 +35 очень
душно
1009.0 982.5

 

Местоположение метеостанции Makkah (Саудовская Аравия): широта 21.43 долгота 39.77 высота над уровнем моря 240 м.

В архиве по умолчанию представлена погода в Makkah за последнюю неделю. Архивные данные за месяц целиком и за предыдущие месяцы, начиная с января 2011 года, Вы можете получить, выбрав интересующий диапазон дат из раскрывающегося списка и нажав кнопку "Ввод!".

Внимание! Время в таблицах - всемирное. Для получения местного времени необходимо прибавить поправку, которая в Makkah равна 3 ч.

Смотрите также архив погоды в соседних городах и на ближайших метеорологических станциях:

Погода в Mina (Саудовская Аравия) (10 км)
Погода в Arafat (Саудовская Аравия) (24 км)
Погода в Jeddah King Abdul Aziz (Саудовская Аравия) (68 км)
Погода в Al Taif (Саудовская Аравия) (81 км)
Погода в Al Baha (Саудовская Аравия) (232 км)
Погода в Port Sudan (Судан) (336 км)
Погода в Bisha (Саудовская Аравия) (338 км)
Погода в Madinah (Саудовская Аравия) (347 км)
Погода в Yanbu (Саудовская Аравия) (347 км)
Погода в Abha (Саудовская Аравия) (466 км)

Пояснения к столбцам:

Ветер - указаны скорость ветра в м/с - средняя за 10 мин, порывы в срок и между сроками (в фигурных скобках) и направление, откуда дует ветер: С - северный, СВ - северо-восточный, В - восточный, ЮВ - юго-восточный, Ю - южный, ЮЗ - юго-западный, З - западный, СЗ - северо-западный.
Видимость - горизонтальная дальность видимости в метрах или километрах. При видимости от 1 до 10 км при отсутствии осадков обычно наблюдается дымка, при ухудшении видимости до 1 км и менее - туман. В сухую погоду видимость может ухудшаться дымом, пылью или мглою.
Явления - указаны атмосферные явления, наблюдавшиеся в срок или в последний час перед сроком; фигурными скобками обозначены явления, наблюдавшиеся между сроками (за 1-3 часа до срока); квадратными скобками обозначены град или гололедные отложения с указанием их диаметра в мм.
Облачность - указаны через наклонную черту общая и нижняя облачность в баллах и высота нижней границы облаков в метрах; квадратными скобками обозначены формы облаков: Ci - перистые, Cs - перисто-слоистые, Cc - перисто-кучевые, Ac - высококучевые, As - высокослоистые, Sc - слоисто-кучевые, Ns - слоисто-дождевые, Cu - кучевые, Cb - кучево-дождевые. Подробнее классификацию облаков см. в Атласе облаков (PDF).
T - Температура воздуха - температура, измеренная на высоте 2 м над землей.
Td - Температура точки росы - температура, при понижении до которой содержащийся в воздухе водяной пар достигнет насыщения.
f - Относительная влажность воздуха - влажноcть воздуха, измеренная на высоте 2 м над землей.
Te - Эффективная температура - температура, которую ощущает одетый по сезону человек в тени. Характеристика душности погоды. При расчете учитывается влияние влажности воздуха и скорости ветра на теплоощущения человека.
Tes - Эффективная температура на солнце - температура, которую ощущает человек, с поправкой на солнечный нагрев. Характеристика знойности погоды. Зависит от высоты солнца над горизонтом, облачности и скорости ветра. Ночью, в пасмурную погоду, а также при ветре 12 м/с и более поправка равна нулю.
P - Атмосферное давление - приведенное к уровню моря атмосферное давление.
Po - Атмосферное давление - измеренное на уровне метеостанции атмосферное давление.
Tmin - Минимальная температура - минимум температуры воздуха на высоте 2 м над землей.
Tmax - Максимальная температура - максимум температуры воздуха на высоте 2 м над землей.
R - Количество осадков - Количество выпавших осадков за период времени, мм. При наведении курсора мыши на число - период времени, за который выпало указанное количество осадков.
R24 - Количество осадков - Количество выпавших осадков за 24 часа, мм.
S - Снежный покров - Высота снежного покрова, см. При наведении курсора мыши на число - состояние снежного покрова и степень покрытия местности в баллах.